DB0BGL Weather Reports


Display with metric or nautical units.
time (UTC)temp
F
wind
direction
speed
MPH
gust
MPH
rain 1hr
in
rain 24hr
in
rain mn
in
humidity
%
barometer
mb
20260506215026 75 180 0.0 0.0 0.00 0.00 0.00 100
20260506213826 75 180 0.0 0.0 0.00 0.00 0.00 100
20260506212625 75 180 0.0 0.0 0.00 0.00 0.00 100
20260506211424 75 180 0.0 0.0 0.00 0.00 0.00 100
20260506210224 75 180 0.0 0.0 0.00 0.00 0.00 100
20260506204609 75 180 0.0 0.0 0.00 0.00 0.00 100
20260506203408 75 180 0.0 0.0 0.00 0.00 0.00 100
20260506131321 69 108 0.0 3.0 0.00 0.00 0.00 33
20260506130320 67 88 0.0 2.0 0.00 0.00 0.00 36
20260506130229 0 180 0.0 0.0 0.00 0.00 0.00 100
20260506125320 62 95 0.0 5.0 0.00 0.00 0.00 42
20260506124319 61 126 2.0 8.0 0.00 0.00 0.00 42
20260506123319 59 122 0.0 5.0 0.00 0.00 0.00 47
20260506121214 0 180 0.0 0.0 0.00 0.00 0.00 100
20260506120015 0 180 0.0 0.0 0.00 0.00 0.00 100
20260506115009 0 180 0.0 0.0 0.00 0.00 0.00 100
20260506114813 0 180 0.0 0.0 0.00 0.00 0.00 100
20260506112411 0 180 0.0 0.0 0.00 0.00 0.00 100
20260506110012 0 180 0.0 0.0 0.00 0.00 0.00 100
20260506105018 0 180 0.0 0.0 0.00 0.00 0.00 100
20260506104809 0 180 0.0 0.0 0.00 0.00 0.00 100
20260506103609 0 180 0.0 0.0 0.00 0.00 0.00 100
20260506102408 0 180 0.0 0.0 0.00 0.00 0.00 100
20260506094806 0 180 0.0 0.0 0.00 0.00 0.00 100
20260506092406 0 180 0.0 0.0 0.00 0.00 0.00 100
20260506081457 55 104 0.0 9.0 0.00 0.00 0.00 55
20260506081454 55 104 0.0 9.0 0.00 0.00 0.00 55
20260506080454 57 78 0.0 5.0 0.00 0.00 0.00 63
20260506073452 55 102 0.0 2.0 0.00 0.00 0.00 64
20260506072451 55 132 3.0 5.0 0.00 0.00 0.00 66
20260506071451 57 119 0.0 5.0 0.00 0.00 0.00 61
20260506070450 59 105 0.0 4.0 0.00 0.00 0.00 58